Weather in Severokavkazsky

Russia / Krasnodar Krai     45°08′47″N   41°03′55″E
temp.,
°C
wind,
m/s
gust,
m/s
humid.,
%
clouds,
%
prec.,
mm/h
press.,
hPa
HPBL,
m
25 february, thu
thu2500:00−10ene467752 0.0 1038222
03:00−10ene238241 0.0 103790
06:00−10ese228328 0.0 103763
09:00−7sse227323 0.0 1036174
12:00−2sw11641 0.0 1034295
15:000w245830 0.0 1033403
18:00−2wsw347890 0.0 103297
21:00−2sw368495 0.0 1032224
26 february, fri
fri2600:00−3sw4884100 0.0 1031263
03:00−2wsw51175100 0.0 1030303
06:00−1wsw41277100 0.0 1029356
09:00+1wsw71592100 0.1 1029537
12:00+4wsw7138399 0.1 1028587
15:00+3w51388100 0.1 1027535
18:00+3wsw51489100 0.0 1026454
21:00+2wsw51489100 0.0 1026397
27 february, sat
sat2700:00+2wsw5148799 0.0 1024412
03:00+2wsw51487100 0.0 1023426
06:00+2wsw51487100 0.0 1021424
09:00+3wsw51484100 0.0 1021458
12:00+3wsw51385100 0.0 1019474
15:00+4wsw41387100 0.1 1017488
18:00+4wsw41388100 0.0 1017440
21:00+3wsw41384100 0.0 1017382
28 february, sun
sun2800:00+2wsw4118499 0.0 1016359
03:00+2w51298100 3.1 1016575
06:00+2wsw81497100 4.1 1016636
09:00+2wsw71197100 7.0 1016512
12:00+3wnw4797100 1.1 1016395
15:00+4wnw3683100 1.3 1017706
18:00+3nnw3683100 0.1 1017333
21:00+2nw2385100 0.1 101962
1 march, mon
mon100:00+1w359196 0.1 1021258
03:000wsw369495 0.2 1022227
06:000w469863 0.0 1023351
09:00+1wnw349481 0.4 1025347
12:00+1nw3486100 0.3 1026493
15:00+2wnw3473100 0.4 1027871
18:00+1nw238567 0.1 102966
21:00−1nnw119235 0.1 103221